Home > Weather > Guadalajara > Past weeks

Flag for Mexico Weather for the Past 2 Weeks in Guadalajara, Jalisco, Mexico

Now
77 °F

Broken clouds.


Feels Like: 76 °F
Forecast: 56 / 90 °F
Wind: 5 mph from Southwest

Location: Don Miguel / Guadalaj

Current Time: Apr 30, 2016 at 9:57:25 PM

Latest Report: Apr 30, 2016 at 8:48 PM


Visibility: 8 mi

Pressure: 30.00 "Hg (25.14 "Hg at 1543m altitude)

Humidity: 8%

Dew Point: 10 °F

Location of GuadalajaraLocation

Historic Weather in Guadalajara — Graph

°F

Guadalajara Temperature Yesterday

Maximum temperature yesterday: 86 °F (at 3:45 PM)
Minimum temperature yesterday: 50 °F (at 6:48 AM)
Average temperature yesterday: 71 °F

High & Low Weather Summary for the Past Weeks

 TemperatureHumidityPressure
High91 °F (Apr 18, 4:52 PM)77% (Apr 19, 7:50 AM)30.25 "Hg (Apr 19, 7:50 AM)
Low45 °F (Apr 27, 6:46 AM)3% (Apr 30, 3:49 PM)29.63 "Hg (Apr 27, 6:52 PM)
Average71 °F28%30.00 "Hg
* Reported Apr 15 8:47 PM — Apr 30 8:48 PM, Guadalajara, Weather by CustomWeather, © 2016

Note: Actual official high and low records may vary slightly from our data, if they occured in-between our weather recording intervals... More about our weather records

Advertising

Guadalajara Weather History for the Previous 24 Hours

Scroll right to see more
 ConditionsComfort  
Time TempWeatherWind HumidityBarometerVisibility
8:48 PM
Sat, Apr 30
77 °FBroken clouds.5 mph8%30.00 "Hg8 mi
6:48 PM86 °FPartly sunny.10 mph4%29.66 "Hg6 mi
5:45 PM88 °FPartly sunny.12 mph4%29.95 "Hg5 mi
4:52 PM86 °FPartly sunny.9 mph5%29.95 "Hg5 mi
3:49 PM86 °FPartly sunny.12 mph3%29.65 "Hg5 mi
2:49 PM82 °FPartly sunny.5 mph6%30.01 "Hg2 mi
1:47 PM81 °FHigh level clouds.6 mph11%30.05 "Hg2 mi
12:48 PM77 °FHigh level clouds.2 mph13%29.74 "Hg2 mi
11:51 AM72 °FHigh level clouds.5 mph22%30.08 "Hg2 mi
10:52 AM66 °FHigh level clouds.3 mph30%30.09 "Hg4 mi
8:45 AM54 °FHigh level clouds.No wind51%30.08 "Hg6 mi
7:49 AM50 °FMostly cloudy.No wind50%30.05 "Hg10 mi
6:52 AM52 °FPartly cloudy.No wind50%29.77 "Hg10 mi
5:53 AM52 °FPassing clouds.No wind47%30.04 "Hg10 mi
5:13 AM52 °FClear.No wind47%30.04 "Hg10 mi
2:07 AM59 °FClear.No wind36%30.07 "Hg10 mi
12:53 AM66 °FClear.5 mph26%29.75 "Hg10 mi
11:45 PM
Fri, Apr 29
70 °FClear.No wind23%30.08 "Hg10 mi
9:52 PM72 °FPassing clouds.3 mph17%29.78 "Hg10 mi
Weather by CustomWeather, © 2016

See weather overviewHow to use our weather pages